GW4300 Weather Reports


time (UTC)temp
C
wind
direction
speed
KPH
gust
KPH
rain 1hr
cm
rain 24hr
cm
rain mn
cm
humidity
%
barometer
mb
20260505035003 16 134 0.0 0.0 0.00 0.00 0.00 71 1011.0
20260505034512 16 134 0.0 0.0 0.00 0.00 0.00 71 1011.0
20260505034003 16 134 0.0 0.0 0.00 0.00 0.00 71 1010.9
20260505033008 16 133 0.0 0.0 0.00 0.00 0.00 70 1010.9
20260505032503 17 133 0.0 1.6 0.00 0.00 0.00 70 1010.9
20260505031513 17 132 0.0 0.0 0.00 0.00 0.00 70 1011.0
20260505031003 17 327 0.0 0.0 0.00 0.00 0.00 69 1011.0
20260505030504 17 348 0.0 1.6 0.00 0.00 0.00 69 1011.0
20260505025505 17 324 0.0 1.6 0.00 0.00 0.00 69 1011.0
20260505025004 17 227 0.0 3.2 0.00 0.00 0.00 68 1011.0
20260505024502 17 312 0.0 3.2 0.00 0.00 0.00 68 1010.9
20260505024005 17 317 0.0 3.2 0.00 0.00 0.00 68 1010.8
20260505023503 17 276 0.0 3.2 0.00 0.00 0.00 68 1010.9
20260505023008 17 115 0.0 3.2 0.00 0.00 0.00 67 1011.0
20260505022506 17 344 0.0 3.2 0.00 0.00 0.00 66 1010.9
20260505022006 17 97 0.0 4.8 0.00 0.00 0.00 66 1010.9
20260505021512 18 117 0.0 4.8 0.00 0.00 0.00 65 1010.9
20260505021003 18 191 0.0 4.8 0.00 0.00 0.00 65 1010.9
20260505020501 18 138 0.0 6.4 0.00 0.00 0.00 64 1010.9
20260505020010 18 80 0.0 6.4 0.00 0.00 0.00 64 1010.8
20260505015503 18 174 0.0 6.4 0.00 0.00 0.00 63 1010.6
20260505015004 18 111 1.6 6.4 0.00 0.00 0.00 63 1010.6
20260505014508 18 74 0.0 1.6 0.00 0.00 0.00 61 1010.7
20260505014003 18 115 0.0 3.2 0.00 0.00 0.00 60 1010.8
20260505013503 18 329 0.0 3.2 0.00 0.00 0.00 59 1010.8
20260505013005 18 193 0.0 3.2 0.00 0.00 0.00 60 1010.7
20260505012502 18 305 0.0 3.2 0.00 0.00 0.00 61 1010.8
20260505012004 18 51 0.0 3.2 0.00 0.00 0.00 61 1010.7
20260505011003 18 16 0.0 1.6 0.00 0.00 0.00 62 1010.5
20260505010503 18 40 0.0 3.2 0.00 0.00 0.00 62 1010.6
20260505010008 18 36 0.0 3.2 0.00 0.00 0.00 62 1010.4
20260505005504 18 49 0.0 3.2 0.00 0.00 0.00 63 1010.3
20260505005004 18 193 0.0 3.2 0.00 0.00 0.00 63 1010.3
20260505004516 18 44 0.0 3.2 0.00 0.00 0.00 63 1010.3
20260505004002 18 324 0.0 3.2 0.00 0.00 0.00 62 1010.3
20260505003504 18 325 0.0 3.2 0.00 0.00 0.00 61 1010.3
20260505003010 18 325 0.0 3.2 0.00 0.00 0.00 61 1010.3
20260505002502 18 292 0.0 3.2 0.00 0.00 0.00 60 1010.2
20260505002002 18 156 0.0 3.2 0.00 0.00 0.00 60 1010.1
20260505001510 18 294 0.0 1.6 0.00 0.00 0.00 59 1010.2
20260505000008 19 263 0.0 3.2 0.00 0.00 0.00 56 1010.2
20260504235503 19 195 0.0 3.2 0.00 0.00 0.00 56 1010.2
20260504235003 19 196 0.0 4.8 0.00 0.00 0.00 55 1010.2
20260504234508 19 134 1.6 4.8 0.00 0.00 0.00 54 1010.2
20260504234006 20 205 0.0 8.0 0.00 0.00 0.00 53 1010.2
20260504233504 20 302 0.0 8.0 0.00 0.00 0.00 52 1010.2
20260504233008 20 341 1.6 8.0 0.00 0.00 0.00 51 1010.2
20260504232506 20 95 1.6 4.8 0.00 0.00 0.00 51 1010.1
20260504232003 20 183 0.0 8.0 0.00 0.00 0.00 49 1010.1
20260504231505 20 133 1.6 8.0 0.00 0.00 0.00 48 1010.2
20260504231002 20 79 0.0 8.0 0.00 0.00 0.00 48 1010.2
20260504230010 21 70 1.6 8.0 0.00 0.00 0.00 45 1010.2
20260504225504 21 197 1.6 9.7 0.00 0.00 0.00 44 1010.0
20260504225003 21 53 3.2 9.7 0.00 0.00 0.00 43 1010.1
20260504224513 21 90 0.0 4.8 0.00 0.00 0.00 43 1010.1
20260504224003 21 90 0.0 6.4 0.00 0.00 0.00 42 1010.2
20260504223507 21 194 1.6 6.4 0.00 0.00 0.00 41 1010.2
20260504223008 21 140 1.6 6.4 0.00 0.00 0.00 43 1010.1
20260504222504 21 80 0.0 4.8 0.00 0.00 0.00 42 1010.1
20260504222003 21 161 1.6 6.4 0.00 0.00 0.00 43 1010.1
20260504221512 21 69 1.6 6.4 0.00 0.00 0.00 43 1010.1
20260504221005 21 273 1.6 4.8 0.00 0.00 0.00 43 1010.1
20260504220507 22 99 0.0 4.8 0.00 0.00 0.00 42 1010.1
20260504215504 22 169 1.6 9.7 0.00 0.00 0.00 43 1010.1
20260504215002 22 126 1.6 9.7 0.00 0.00 0.00 43 1010.2
20260504214511 22 327 1.6 8.0 0.00 0.00 0.00 42 1010.2
20260504214008 22 78 1.6 9.7 0.00 0.00 0.00 43 1010.2
20260504213506 22 281 0.0 9.7 0.00 0.00 0.00 40 1010.2
20260504212507 22 208 1.6 9.7 0.00 0.00 0.00 40 1010.2
20260504212008 22 292 1.6 9.7 0.00 0.00 0.00 40 1010.2
20260504211514 22 209 1.6 8.0 0.00 0.00 0.00 40 1010.2
20260504211005 22 207 0.0 6.4 0.00 0.00 0.00 39 1010.2
20260504210506 22 175 1.6 6.4 0.00 0.00 0.00 38 1010.1
20260504210031 22 302 3.2 8.0 0.00 0.00 0.00 38 1010.3
20260504205506 22 219 1.6 9.7 0.00 0.00 0.00 38 1010.4
20260504205006 23 5 1.6 9.7 0.00 0.00 0.00 38 1010.3
20260504204528 23 125 1.6 8.0 0.00 0.00 0.00 36 1010.3
20260504204005 23 175 1.6 8.0 0.00 0.00 0.00 36 1010.3
20260504203506 23 9 1.6 6.4 0.00 0.00 0.00 37 1010.4
20260504202507 23 236 0.0 4.8 0.00 0.00 0.00 38 1010.6
20260504202008 23 84 0.0 4.8 0.00 0.00 0.00 38 1010.7
20260504201518 23 296 1.6 4.8 0.00 0.00 0.00 36 1010.7
20260504201005 23 84 0.0 4.8 0.00 0.00 0.00 37 1010.7
20260504200505 23 327 1.6 6.4 0.00 0.00 0.00 37 1010.7
20260504200020 23 170 1.6 6.4 0.00 0.00 0.00 36 1010.8
20260504195504 23 153 1.6 4.8 0.00 0.00 0.00 38 1010.9
20260504195006 23 134 0.0 4.8 0.00 0.00 0.00 36 1011.0
20260504194518 23 74 1.6 4.8 0.00 0.00 0.00 38 1011.0
20260504194007 23 170 1.6 4.8 0.00 0.00 0.00 36 1011.1
20260504193506 23 132 1.6 4.8 0.00 0.00 0.00 36 1011.3
20260504193020 23 173 1.6 4.8 0.00 0.00 0.00 37 1011.4
20260504192507 23 148 0.0 4.8 0.00 0.00 0.00 38 1011.5
20260504192009 22 280 0.0 4.8 0.00 0.00 0.00 37 1011.6
20260504191514 22 93 1.6 6.4 0.00 0.00 0.00 37 1011.6
20260504191008 22 164 1.6 6.4 0.00 0.00 0.00 35 1011.7
20260504190508 23 256 0.0 6.4 0.00 0.00 0.00 36 1011.7
20260504185506 22 347 1.6 6.4 0.00 0.00 0.00 36 1011.9
20260504185005 22 153 1.6 6.4 0.00 0.00 0.00 36 1011.9
20260504184524 22 103 0.0 4.8 0.00 0.00 0.00 37 1012.0
20260504184008 22 173 1.6 4.8 0.00 0.00 0.00 36 1012.0
20260504183506 22 184 0.0 6.4 0.00 0.00 0.00 36 1012.1
20260504183018 22 154 1.6 6.4 0.00 0.00 0.00 35 1012.1
20260504182507 22 263 0.0 6.4 0.00 0.00 0.00 36 1012.1
20260504182008 22 153 0.0 3.2 0.00 0.00 0.00 37 1012.1
20260504181522 22 138 1.6 6.4 0.00 0.00 0.00 38 1012.2
20260504181009 21 169 0.0 6.4 0.00 0.00 0.00 37 1012.2
20260504175504 21 202 0.0 4.8 0.00 0.00 0.00 37 1012.5
20260504175007 21 48 1.6 4.8 0.00 0.00 0.00 37 1012.5
20260504174507 21 178 1.6 6.4 0.00 0.00 0.00 38 1012.6
20260504174002 21 151 0.0 6.4 0.00 0.00 0.00 39 1012.7
20260504173504 21 77 1.6 9.7 0.00 0.00 0.00 40 1012.7
20260504173009 20 137 1.6 9.7 0.00 0.00 0.00 42 1012.8
20260504172503 20 115 1.6 4.8 0.00 0.00 0.00 40 1012.9
20260504172003 20 76 1.6 6.4 0.00 0.00 0.00 40 1012.9
20260504171516 20 103 1.6 6.4 0.00 0.00 0.00 39 1012.8
20260504170510 20 156 0.0 4.8 0.00 0.00 0.00 41 1013.0
20260504151007 18 333 1.6 4.8 0.00 0.00 0.00 41 1014.2
20260504150512 17 276 0.0 3.2 0.00 0.00 0.00 43 1014.3
20260504130509 14 216 1.6 6.4 0.00 0.00 0.00 51 1014.8
20260504110509 -17 0.0 0.0 0.00 0.00 0.00 1015.3
20260504100507 -17 0.0 0.0 0.00 0.00 0.00 1015.3
20260504082007 -17 0.0 0.0 0.00 0.00 0.00 1015.6
20260504081533 -17 0.0 0.0 0.00 0.00 0.00 1015.6
20260504081008 -17 0.0 0.0 0.00 0.00 0.00 1015.7
20260504080508 -17 0.0 0.0 0.00 0.00 0.00 1015.7
20260504050508 8 277 0.0 0.0 0.00 0.00 0.00 73 1015.8
20260504050021 8 277 0.0 0.0 0.00 0.00 0.00 72 1015.8
20260504045505 8 277 0.0 0.0 0.00 0.00 0.00 68 1015.8
20260504045008 8 264 0.0 0.0 0.00 0.00 0.00 69 1015.9
20260504044529 8 264 0.0 1.6 0.00 0.00 0.00 67 1016.0
20260504044010 9 264 0.0 1.6 0.00 0.00 0.00 67 1016.0
20260504043503 9 252 0.0 0.0 0.00 0.00 0.00 67 1015.9
20260504043015 8 251 0.0 0.0 0.00 0.00 0.00 66 1015.9
20260504042507 8 251 0.0 0.0 0.00 0.00 0.00 66 1015.9
20260504042008 8 273 0.0 0.0 0.00 0.00 0.00 64 1015.9
20260504041538 8 281 0.0 0.0 0.00 0.00 0.00 68 1015.8
20260504041009 8 281 0.0 0.0 0.00 0.00 0.00 69 1015.8
20260504040510 7 281 0.0 1.6 0.00 0.00 0.00 68 1015.8
20260504040032 7 282 0.0 1.6 0.00 0.00 0.00 70 1015.8
20260504035510 7 279 0.0 0.0 0.00 0.00 0.00 73 1015.8